Weather History for Kansas City, MO

Change the Weather History Date:

Sunday, May 12, 2013

  Actual Average Record
Temperature  
Mean Temperature 54 °F -  
Max Temperature 66 °F 73 °F 87 °F (2007)
Min Temperature 41 °F 54 °F 41 °F (2013)
Degree Days  
Heating Degree Days 12    
Growing Degree Days 4 (Base 50)    
Moisture  
Dew Point 31 °F    
Average Humidity 43    
Maximum Humidity 79    
Minimum Humidity 25    
Precipitation  
Precipitation 0.00 in - - ()
Sea Level Pressure  
Sea Level Pressure 30.22 in    
Wind  
Wind Speed 2 mph (WNW)    
Max Wind Speed 7 mph    
Max Gust Speed -    
Visibility 10 miles    
Events      
Averages and records for this station are not official NWS values.
T = Trace of Precipitation, MM = Missing Value Source: NWS Daily Summary

Daily Weather History Graph

Daily Weather History Graph

Search for Another Location

Airport:

Trip Planner

Search our weather history database for the weather conditions in past years. The results will help you decide how hot, cold, wet, or windy it might be!

Date:

Astronomy

May. 12, 2013 Rise Set
Actual Time 6:07 AM CDT 8:22 PM CDT
Civil Twilight 5:37 AM CDT 8:52 PM CDT
Nautical Twilight 5:01 AM CDT 9:28 PM CDT
Astronomical Twilight 4:21 AM CDT 10:09 PM CDT
Moon 8:03 AM CDT (5/12) 10:49 PM CDT (5/12)
Length of Visible Light 15h 14m
Length of Day
14h 14m
Waxing Crescent, 7% of the Moon is Illuminated
May 12
Waxing Crescent
May 17
First Quarter
May 24
Full
May 31
Last Quarter
Jun 8
New

Hourly Weather History & Observations

Time (CDT) Temp. Dew Point Humidity Pressure Visibility Wind Dir Wind Speed Gust Speed Precip Events Conditions
12:54 AM 48.9 °F 33.1 °F 54% 30.25 in 10.0 mi NW 3.5 mph - N/A   Clear
1:54 AM 44.1 °F 34.0 °F 68% 30.25 in 10.0 mi Calm Calm - N/A   Clear
2:54 AM 44.1 °F 34.0 °F 68% 30.25 in 10.0 mi Calm Calm - N/A   Clear
3:54 AM 45.0 °F 34.0 °F 65% 30.24 in 10.0 mi Calm Calm - N/A   Clear
4:54 AM 42.1 °F 34.0 °F 73% 30.25 in 10.0 mi Calm Calm - N/A   Clear
5:54 AM 42.1 °F 33.1 °F 70% 30.26 in 10.0 mi Calm Calm - N/A   Clear
6:54 AM 41.0 °F 35.1 °F 79% 30.28 in 10.0 mi Calm Calm - N/A   Clear
7:54 AM 46.9 °F 33.1 °F 59% 30.29 in 10.0 mi Calm Calm - N/A   Clear
8:54 AM 50.0 °F 34.0 °F 54% 30.29 in 10.0 mi Calm Calm - N/A   Partly Cloudy
9:54 AM 55.9 °F 25.0 °F 30% 30.29 in 10.0 mi Calm Calm - N/A   Clear
10:54 AM 59.0 °F 28.0 °F 31% 30.28 in 10.0 mi Calm Calm - N/A   Clear
11:54 AM 61.0 °F 28.0 °F 29% 30.28 in 10.0 mi WNW 5.8 mph - N/A   Scattered Clouds
12:54 PM 62.1 °F 26.1 °F 25% 30.25 in 10.0 mi Variable 5.8 mph - N/A   Mostly Cloudy
1:54 PM 63.0 °F 27.0 °F 26% 30.23 in 10.0 mi Calm Calm - N/A   Clear
2:54 PM 66.0 °F 30.9 °F 27% 30.20 in 10.0 mi NE 6.9 mph - N/A   Clear
3:54 PM 66.0 °F 30.0 °F 26% 30.17 in 10.0 mi SE 5.8 mph - N/A   Clear
4:54 PM 66.9 °F 32.0 °F 27% 30.16 in 10.0 mi Calm Calm - N/A   Partly Cloudy
5:54 PM 64.0 °F 30.0 °F 28% 30.15 in 10.0 mi West 5.8 mph - N/A   Scattered Clouds
6:54 PM 64.0 °F 28.9 °F 27% 30.14 in 10.0 mi NNW 3.5 mph - N/A   Mostly Cloudy
7:54 PM 64.0 °F 28.9 °F 27% 30.13 in 10.0 mi Calm Calm - N/A   Overcast
8:54 PM 64.0 °F 28.9 °F 27% 30.14 in 10.0 mi Calm Calm - N/A   Overcast
9:54 PM 59.0 °F 33.1 °F 38% 30.15 in 10.0 mi SE 6.9 mph - N/A   Partly Cloudy
10:54 PM 57.9 °F 30.9 °F 36% 30.15 in 10.0 mi ESE 4.6 mph - N/A   Clear
11:54 PM 57.9 °F 37.0 °F 46% 30.16 in 10.0 mi SW 3.5 mph - N/A   Clear